Retour au catalogue

COSMOS 2111

GLONASS

ActifNavigationMEO
NORAD 21008·PAYLOAD·🇷🇺 Russia

Lancé Dec 8, 1990 depuis Baikonur Cosmodrome

Loading…

Prochains Passages (prochaines 24 heures)

TLE

FraisSource: Space-Track

Époque: Sep 8, 2026, 09:12 UTC

1 21008U 90110C   26251.38395962  .00000032  00000-0  00000-0 0  9998
2 21008  64.9776  68.3710 0017774 237.0935 135.5034  2.13098520278178

Suivez COSMOS 2111 en temps réel avec AllMySat

Download on the App Store